[[{"header":{"parameterUnit":"m.s-1","parameterCategory":1,"la1":30.2991,"la2":30.254,"lo1":-89.0895,"lo2":-89.0444,"dy":0.0017,"dx":0.0017,"nx":28,"ny":28,"refTime":"2023-10-05T03:00:00:Z","depth":0,"parameterNumber":2,"parameterNumberName":"U-component_of_WINDS"},"data":[0,0,0,0,0,0,0,0,0,0,0,0,0,0,0,0,0,0,0,0,0,0,0,0,0,0,0,0,0,0,0,0,0,0,0,0,0,0,0,0,0,0,0,0,0,0,0,0,0,0,0,0,0,0,0,0,0,0,2.9846,2.9847,0,2.9913,2.9914,2.9915,2.9831,2.9828,2.9825,2.9822,2.9886,2.9891,2.9895,0,0,0,0,0,0,0,0,0,0,0,0,0,2.9646,2.965,2.9846,2.9847,2.9848,2.9913,2.9914,2.9915,2.9832,2.9828,2.9824,2.9821,2.9885,2.989,2.9895,0,0,0,0,0,0,0,0,0,0,0,0,0,2.9725,2.9652,2.9846,2.9814,2.9812,2.9913,2.9914,2.9915,2.9832,2.9828,2.9823,2.9819,2.9883,2.9889,2.9896,3.003,0,0,2.9917,2.992,0,0,0,0,0,0,0,0,2.9721,2.9732,2.9818,2.9817,2.9815,2.9859,2.9867,2.9953,2.9833,2.9825,2.9822,2.9817,2.9881,2.9887,2.991,3.0033,3.0036,2.9918,2.9922,2.9925,2.9927,0,0,0,0,0,0,0,2.9715,2.9729,2.9873,2.982,2.9817,2.9797,2.9803,2.9883,2.9877,2.9825,2.9819,2.9828,2.9879,2.9903,2.9911,3.0037,2.9917,2.9924,2.9928,2.993,3.0276,3.0281,0,0,0,0,0,0,2.9714,2.9725,2.987,2.9875,2.9756,2.9804,2.9811,2.9849,2.9876,2.9876,2.9832,2.9824,2.9894,2.9903,2.9913,3.0072,2.9925,2.9931,2.9935,3.0271,3.0277,3.0283,0,0,0,0,0,0,2.971,2.9728,2.9868,2.9798,2.9815,2.9812,2.9856,2.9853,2.9878,2.9882,2.988,2.9859,2.9891,2.9903,3.0002,3.0073,2.9934,2.994,3.0265,3.0273,3.028,3.0391,0,0,0,0,0,0,2.9704,2.9727,2.9777,2.98,2.9819,2.9957,2.9861,2.9858,2.989,2.988,2.9906,2.9906,2.9888,2.9993,3.0009,3.008,2.9946,3.0259,3.0269,3.0278,3.0381,3.0402,3.042,0,0,0,0,0,2.9698,2.9804,2.978,2.9798,2.9882,2.9961,2.9971,2.995,2.9896,2.9947,2.9951,2.9905,3.0064,3.0004,3.0021,3.0095,3.0254,3.0266,3.0277,3.0373,3.0398,3.0419,0,0,0,0,0,0,2.9786,2.9806,2.978,2.9897,2.9929,2.9947,3.0009,2.9977,3.0023,3.0011,2.9982,2.9989,3.0095,3.0105,3.0038,3.0228,3.015,3.0165,3.0217,3.024,3.0259,3.0253,2.9951,0,0,0,0,0,2.982,2.9884,2.9897,2.9999,3.0017,3.0012,3.0045,3.0027,3.0057,3.0069,3.0079,3.011,3.0167,3.0205,3.0257,3.0384,3.0389,3.0444,3.0463,3.0479,3.0491,3.0561,3.0586,3.032,3.032,3.032,0,0,2.9889,2.9908,2.9949,3.0018,3.004,3.0106,3.0023,3.0095,3.0144,3.0079,3.0174,3.0184,3.0217,3.0331,3.0382,3.0343,3.0567,3.0493,3.0506,3.051,3.0576,3.0601,3.0623,3.0328,3.0327,3.0325,0,0,3.0048,3.0069,3.0158,3.0183,3.0219,3.0216,3.0238,3.0263,3.0267,3.0363,3.0317,3.0375,3.0473,3.0499,3.0524,3.0701,3.0661,3.0719,3.0817,3.0886,3.0907,3.0925,3.0988,3.1011,3.0733,3.0733,3.0733,0,3.0128,3.0227,3.0207,3.0285,3.0317,3.0266,3.0355,3.0381,3.0431,3.0455,3.0411,3.0536,3.0554,3.0675,3.0719,3.0741,3.0765,3.0714,3.0906,3.0924,3.0941,3.1001,3.1025,3.074,3.0739,3.0738,3.0738,0,3.0325,3.0395,3.0462,3.0516,3.0556,3.0639,3.0632,3.0675,3.0655,3.0657,3.0757,3.0778,3.0835,3.0863,3.0842,3.0982,3.0957,3.0911,3.0831,3.0973,3.1029,3.1052,3.0749,3.0747,3.0745,3.0743,0,0,3.0536,3.0582,3.0607,3.0632,3.0671,3.0724,3.0807,3.0865,3.0903,3.0942,3.101,3.1098,3.1056,3.1086,3.1069,3.113,3.1269,3.1076,3.1076,3.1111,3.1426,3.1459,3.1486,3.1245,3.1249,3.1253,3.1423,0,3.0696,3.084,3.0827,3.0963,3.1028,3.0983,3.1055,3.1087,3.1093,3.1149,3.1154,3.1216,3.1157,3.1175,3.1234,3.124,3.1332,3.1228,3.1307,3.131,3.1298,3.1515,3.1549,3.1708,3.1444,3.1448,3.1451,0,3.09,3.0949,3.1093,3.1126,3.1152,3.1217,3.1272,3.1326,3.1363,3.1362,3.1399,3.1373,3.1457,3.1379,3.1494,3.1424,3.1456,3.1465,3.1471,3.1475,3.1387,3.1524,3.1758,3.1782,3.1485,3.1482,3.148,0,3.1039,3.1142,3.1242,3.1265,3.1305,3.1353,3.1372,3.1404,3.1441,3.1489,3.1513,3.157,3.16,3.1645,3.1635,3.1579,3.1754,3.1674,3.1755,3.1755,3.179,3.1788,3.2032,3.1815,3.1815,3.1814,3.1814,0,3.1218,3.1307,3.1305,3.1366,3.1466,3.1452,3.1551,3.1564,3.1595,3.1658,3.1623,3.1683,3.1668,3.1727,3.1721,3.1818,3.1832,3.1834,3.183,3.1836,3.1835,3.1854,3.1842,3.1821,3.1819,3.1818,3.1817,0,3.1388,3.1391,3.1497,3.1529,3.154,3.1612,3.1639,3.1697,3.1702,3.1783,3.1801,3.1808,3.1877,3.1874,3.195,3.1946,3.2066,3.205,3.2054,3.205,3.2131,3.2123,3.2394,3.2429,3.2191,3.2193,3.2195,0,3.15,3.1569,3.1611,3.1652,3.1675,3.1741,3.1781,3.1771,3.1813,3.1863,3.1915,3.1982,3.2034,3.2147,3.2158,3.2218,3.2202,3.2294,3.2211,3.2215,3.2203,3.2198,3.2205,3.2309,3.2311,3.2314,3.2315,0,3.17,3.1699,3.1758,3.182,3.1868,3.1915,3.1958,3.1994,3.1988,3.2038,3.211,3.2151,3.2233,3.2299,3.2357,3.2376,3.2345,3.2343,3.2364,3.2369,3.2368,3.2369,3.2097,3.2335,3.2333,3.2332,3.2331,3.233,3.1844,3.1904,3.1944,3.2012,3.2044,3.2087,3.2144,3.2159,3.2219,3.2285,3.2276,3.2357,3.2395,3.2471,3.2496,3.2559,3.2526,3.2557,3.2565,3.2573,3.2582,3.2361,3.2569,3.2569,3.2568,3.2568,3.2567,0,3.2041,3.2066,3.2129,3.2193,3.2247,3.2218,3.2265,3.2312,3.2384,3.2423,3.2477,3.2561,3.2627,3.2647,3.271,3.2757,3.2745,3.2774,3.2769,3.2774,3.2607,3.2582,3.2783,3.2783,3.2783,3.2783,3.2783,3.2783,3.215,3.225,3.2256,3.2373,3.2397,3.2478,3.2508,3.2547,3.2579,3.2675,3.2731,3.2744,3.2776,3.2843,3.2903,3.2906,3.2931,3.2966,3.2964,3.2807,3.2785,3.2765,3.2741,3.2972,3.2972,3.3126,3.3127,3.3128]},{"header":{"parameterUnit":"m.s-1","parameterCategory":1,"la1":30.2991,"la2":30.254,"lo1":-89.0895,"lo2":-89.0444,"dy":0.0017,"dx":0.0017,"nx":28,"ny":28,"refTime":"2023-10-05T03:00:00:Z","depth":0,"parameterNumber":3,"parameterNumberName":"V-component_of_WINDS"},"data":[0,0,0,0,0,0,0,0,0,0,0,0,0,0,0,0,0,0,0,0,0,0,0,0,0,0,0,0,0,0,0,0,0,0,0,0,0,0,0,0,0,0,0,0,0,0,0,0,0,0,0,0,0,0,0,0,0,0,-3.062,-3.0615,0,-3.0173,-3.0168,-3.0163,-2.9958,-2.9959,-2.9959,-2.996,-2.9479,-2.9466,-2.9453,0,0,0,0,0,0,0,0,0,0,0,0,0,-3.1273,-3.1263,-3.062,-3.0615,-3.0609,-3.0174,-3.0168,-3.0161,-2.9958,-2.9959,-2.9959,-2.996,-2.9484,-2.9468,-2.9452,0,0,0,0,0,0,0,0,0,0,0,0,0,-3.0924,-3.1259,-3.0621,-3.0456,-3.0436,-3.0175,-3.0167,-3.016,-2.9958,-2.9959,-2.9959,-2.996,-2.9489,-2.9469,-2.945,-2.9313,0,0,-2.9389,-2.9381,0,0,0,0,0,0,0,0,-3.0944,-3.09,-3.0486,-3.0467,-3.0445,-3.0123,-3.0221,-2.9875,-2.9958,-3.0139,-2.996,-2.996,-2.9691,-2.9655,-2.9568,-2.929,-2.9269,-2.9387,-2.9375,-2.9367,-2.9361,0,0,0,0,0,0,0,-3.0969,-3.0918,-3.0442,-3.048,-3.0455,-3.0396,-3.0347,-3.0155,-2.9915,-3.0123,-3.0107,-3.0058,-2.968,-2.9588,-2.9556,-2.9262,-2.9388,-2.937,-2.9358,-2.935,-2.8842,-2.884,0,0,0,0,0,0,-3.1023,-3.094,-3.0457,-3.0429,-3.0702,-3.0384,-3.0329,-3.0225,-2.9917,-2.9872,-3.0058,-3.0051,-2.9622,-2.9579,-2.9538,-2.9353,-2.9367,-2.9348,-2.9337,-2.8843,-2.8842,-2.884,0,0,0,0,0,0,-3.1038,-3.0982,-3.0475,-3.068,-3.0611,-3.0372,-3.0256,-3.0216,-3.0124,-2.9869,-2.9822,-3.001,-2.9621,-2.9566,-2.937,-2.9334,-2.9339,-2.9321,-2.8845,-2.8843,-2.8841,-2.8987,0,0,0,0,0,0,-3.1058,-3.0989,-3.094,-3.0681,-3.0601,-3.0323,-3.0254,-3.0206,-3.0093,-3.0079,-2.9811,-2.9767,-2.9617,-2.9401,-2.9351,-2.9307,-2.9306,-2.8847,-2.8844,-2.8841,-2.8984,-2.899,-2.8995,0,0,0,0,0,-3.1082,-3.0995,-3.0939,-3.0882,-3.0537,-3.0321,-3.0274,-3.011,-3.0091,-3.0036,-2.9871,-2.9776,-2.9347,-2.9383,-2.9324,-2.9274,-2.8849,-2.8845,-2.8842,-2.8982,-2.8989,-2.8995,0,0,0,0,0,0,-3.1249,-3.0958,-3.0893,-3.0721,-3.0549,-3.0288,-3.0213,-3.0123,-2.9946,-2.9939,-2.9735,-2.9676,-2.9497,-2.9365,-2.9411,-2.9122,-2.9089,-2.9073,-2.9215,-2.9219,-2.9225,-2.9259,-2.9289,0,0,0,0,0,-3.1268,-3.1125,-3.0875,-3.0747,-3.0665,-3.0455,-3.0354,-3.0243,-3.0052,-2.9976,-2.9797,-2.9609,-2.9431,-2.9318,-2.914,-2.8964,-2.8899,-2.89,-2.8905,-2.8911,-2.8899,-2.879,-2.8786,-2.8828,-2.8828,-2.8828,0,0,-3.1301,-3.1125,-3.1046,-3.0776,-3.0629,-3.0478,-3.0394,-3.0238,-3.0121,-2.9949,-2.9756,-2.9617,-2.9393,-2.9207,-2.9115,-2.9091,-2.8873,-2.8906,-2.8913,-2.8897,-2.8786,-2.8782,-2.8779,-2.8826,-2.8826,-2.8827,0,0,-3.1286,-3.1141,-3.1017,-3.0872,-3.0653,-3.0513,-3.0484,-3.0236,-3.014,-2.9943,-2.981,-2.9664,-2.9364,-2.9209,-2.9091,-2.9014,-2.8917,-2.8961,-2.8987,-2.8884,-2.8881,-2.8877,-2.8845,-2.8837,-2.895,-2.8951,-2.8951,0,-3.1353,-3.1129,-3.0963,-3.0815,-3.0697,-3.0542,-3.041,-3.0275,-3.0006,-2.9924,-2.9904,-2.9522,-2.936,-2.9132,-2.9114,-2.9025,-2.8978,-2.899,-2.8896,-2.889,-2.8884,-2.8851,-2.884,-2.8957,-2.8957,-2.8956,-2.8955,0,-3.122,-3.1065,-3.099,-3.0743,-3.0616,-3.0477,-3.0282,-3.0173,-3.0071,-2.9932,-2.9729,-2.953,-2.9308,-2.9246,-2.9143,-2.9001,-2.8993,-2.8937,-2.8899,-2.8889,-2.8855,-2.8841,-2.8967,-2.8964,-2.8962,-2.8961,0,0,-3.1297,-3.0961,-3.0935,-3.0819,-3.0565,-3.0438,-3.0288,-3.0078,-2.9986,-2.9804,-2.9668,-2.9417,-2.9363,-2.9229,-2.9106,-2.9017,-2.8963,-2.8969,-2.896,-2.8972,-2.8788,-2.8831,-2.882,-2.8899,-2.8896,-2.8893,-2.8806,0,-3.1244,-3.0979,-3.0824,-3.0618,-3.0469,-3.0317,-3.0185,-3.0011,-2.9875,-2.9722,-2.9568,-2.9393,-2.9338,-2.9255,-2.9159,-2.8991,-2.8923,-2.8995,-2.8762,-2.8756,-2.8822,-2.8802,-2.8847,-2.8775,-2.8792,-2.8789,-2.8788,0,-3.1148,-3.0977,-3.0759,-3.0519,-3.045,-3.0336,-3.0129,-2.9988,-2.9782,-2.9689,-2.9541,-2.9418,-2.9245,-2.9223,-2.8978,-2.9031,-2.8925,-2.8827,-2.882,-2.879,-2.8771,-2.8768,-2.8748,-2.8737,-2.8766,-2.8767,-2.8769,0,-3.1223,-3.0937,-3.0768,-3.0674,-3.0391,-3.0313,-3.0189,-2.9987,-2.9869,-2.9684,-2.9604,-2.9401,-2.9288,-2.9128,-2.8951,-2.8952,-2.8721,-2.8685,-2.8632,-2.8637,-2.8588,-2.8593,-2.8549,-2.8527,-2.8527,-2.8527,-2.8528,0,-3.1179,-3.105,-3.0798,-3.0695,-3.0543,-3.0362,-3.0214,-3.0077,-2.9898,-2.9758,-2.9611,-2.9482,-2.9257,-2.9097,-2.8956,-2.8771,-2.8721,-2.8635,-2.8599,-2.8647,-2.8658,-2.8573,-2.8572,-2.8524,-2.8525,-2.8525,-2.8526,0,-3.1237,-3.1064,-3.087,-3.0619,-3.0552,-3.0451,-3.0231,-3.0119,-2.9977,-2.9802,-2.9749,-2.9522,-2.9326,-2.9134,-2.8868,-2.8773,-2.8588,-2.8541,-2.866,-2.8639,-2.8596,-2.8602,-2.8493,-2.8467,-2.8468,-2.8468,-2.8469,0,-3.122,-3.1118,-3.0857,-3.0757,-3.0639,-3.0479,-3.0359,-3.0174,-3.0054,-2.9812,-2.9728,-2.9523,-2.9349,-2.904,-2.8846,-2.864,-2.8585,-2.8561,-2.8552,-2.8603,-2.8579,-2.8587,-2.8573,-2.8565,-2.8566,-2.8567,-2.8568,0,-3.1205,-3.1125,-3.0963,-3.077,-3.0633,-3.047,-3.0301,-3.0224,-3.0005,-2.9876,-2.9678,-2.9544,-2.9274,-2.9069,-2.8841,-2.8703,-2.8596,-2.8573,-2.8549,-2.8595,-2.8667,-2.8624,-2.8671,-2.8575,-2.8574,-2.8574,-2.8574,-2.8573,-3.1221,-3.1123,-3.0925,-3.0747,-3.0602,-3.0447,-3.033,-3.0174,-3.0008,-2.978,-2.9678,-2.9476,-2.9266,-2.8951,-2.8815,-2.8648,-2.8621,-2.8588,-2.8578,-2.8572,-2.8582,-2.8698,-2.8606,-2.8605,-2.8605,-2.8605,-2.8604,0,-3.1197,-3.1063,-3.0902,-3.0673,-3.0531,-3.0451,-3.0258,-3.0143,-2.997,-2.9788,-2.9621,-2.9389,-2.9189,-2.898,-2.8765,-2.8671,-2.8616,-2.8621,-2.8624,-2.8593,-2.862,-2.8661,-2.8669,-2.8669,-2.8669,-2.8669,-2.8669,-2.8669,-3.1168,-3.0997,-3.0892,-3.0643,-3.0505,-3.0313,-3.0209,-3.0062,-2.9915,-2.9667,-2.9502,-2.937,-2.9173,-2.8943,-2.8753,-2.8695,-2.862,-2.8639,-2.8567,-2.8595,-2.8591,-2.8587,-2.8625,-2.8625,-2.8625,-2.8553,-2.8552,-2.8552]}]]